Richmond, VA

11:41 PM EDT on June 17, 2019 (GMT -0400)
Richmond International

Weather History for KRIC - May, 2019

Change the Weather History Date:

Wednesday, May 22, 2019

  Actual Average Record
Temperature  
Mean Temperature 66 °F 68 °F  
Max Temperature 77 °F 79 °F 96 °F (1941)
Min Temperature 54 °F 57 °F 38 °F (2002)
Degree Days  
Heating Degree Days 0 2  
Month to date heating degree days 18 64  
Since 1 July heating degree days 3492 3756  
Cooling Degree Days 0 5  
Month to date cooling degree days 141 66  
Year to date cooling degree days 205 108  
Growing Degree Days 16 (Base 50)    
Moisture  
Dew Point 50 °F    
Average Humidity 60    
Maximum Humidity 83    
Minimum Humidity 41    
Precipitation  
Precipitation 0.00 in 0.13 in 1.38 in (2018)
Month to date precipitation 3.63 2.60  
Year to date precipitation 16.88 15.71  
Snow  
Snow 0.00 in 0.00 in 0.00 in (2002)
Month to date snowfall 0.0 0.0  
Since 1 July snowfall 13.1 10.3  
Snow Depth 0.00 in    
Sea Level Pressure  
Sea Level Pressure 30.24 in    
Wind  
Wind Speed 4 mph ()    
Max Wind Speed 14 mph    
Max Gust Speed 17 mph    
Visibility 10.0 miles    
Events      
T = Trace of Precipitation, MM = Missing Value Source: Averaged Metar Reports

Daily Weather History Graph

Daily Weather History Graph

Search for Another Location

Airport or City:

Astronomy

May. 22, 2019 Rise Set
Actual Time 5:55 AM EDT 8:17 PM EDT
Civil Twilight 5:25 AM EDT 8:47 PM EDT
Nautical Twilight 4:48 AM EDT 9:24 PM EDT
Astronomical Twilight 4:08 AM EDT 10:04 PM EDT
Moon 11:59 PM EDT (5/22) 9:02 AM EDT (5/22)
Length of Visible Light 15h 21m
Length of Day
14h 22m
Waning Gibbous, 85% of the Moon is Illuminated
May 22
Waning Gibbous
May 26
Last Quarter
Jun 3
New
Jun 10
First Quarter
Jun 17
Full

Hourly Weather History & Observations

Time (EDT) Temp. Dew Point Humidity Pressure Visibility Wind Dir Wind Speed Gust Speed Precip Events Conditions
12:54 AM 57.9 °F 48.9 °F 72% 30.16 in 10.0 mi Calm Calm - N/A   Scattered Clouds
1:54 AM 57.0 °F 50.0 °F 77% 30.17 in 10.0 mi Calm Calm - N/A   Mostly Cloudy
2:54 AM 55.0 °F 48.9 °F 80% 30.17 in 10.0 mi NE 4.6 mph - N/A   Scattered Clouds
3:54 AM 55.9 °F 48.9 °F 77% 30.19 in 10.0 mi Calm Calm - N/A   Partly Cloudy
4:54 AM 54.0 °F 48.9 °F 83% 30.19 in 10.0 mi North 4.6 mph - N/A   Clear
5:54 AM 54.0 °F 48.0 °F 80% 30.21 in 10.0 mi NNE 5.8 mph - N/A   Partly Cloudy
6:54 AM 55.9 °F 48.9 °F 77% 30.24 in 10.0 mi NNE 6.9 mph - N/A   Partly Cloudy
7:54 AM 61.0 °F 50.0 °F 67% 30.27 in 10.0 mi NE 8.1 mph - N/A   Partly Cloudy
8:54 AM 64.9 °F 50.0 °F 58% 30.27 in 10.0 mi East 10.4 mph - N/A   Scattered Clouds
9:54 AM 68.0 °F 48.9 °F 50% 30.28 in 10.0 mi ENE 6.9 mph - N/A   Scattered Clouds
10:54 AM 69.1 °F 46.9 °F 45% 30.29 in 10.0 mi East 5.8 mph - N/A   Scattered Clouds
11:54 AM 71.1 °F 46.9 °F 42% 30.28 in 10.0 mi East 4.6 mph - N/A   Scattered Clouds
12:54 PM 73.0 °F 48.9 °F 42% 30.28 in 10.0 mi Variable 3.5 mph - N/A   Mostly Cloudy
1:54 PM 75.0 °F 50.0 °F 41% 30.26 in 10.0 mi Variable 5.8 mph - N/A   Mostly Cloudy
2:54 PM 73.9 °F 50.0 °F 43% 30.26 in 10.0 mi South 5.8 mph - N/A   Mostly Cloudy
3:54 PM 75.0 °F 51.1 °F 43% 30.25 in 10.0 mi Calm Calm - N/A   Mostly Cloudy
4:54 PM 75.9 °F 51.1 °F 42% 30.25 in 10.0 mi SSE 10.4 mph - N/A   Mostly Cloudy
5:54 PM 75.0 °F 50.0 °F 41% 30.24 in 10.0 mi SSE 5.8 mph - N/A   Mostly Cloudy
6:54 PM 73.9 °F 50.0 °F 43% 30.23 in 10.0 mi SSE 8.1 mph - N/A   Mostly Cloudy
7:54 PM 70.0 °F 53.1 °F 55% 30.24 in 10.0 mi SE 9.2 mph - N/A   Mostly Cloudy
8:54 PM 66.0 °F 53.1 °F 63% 30.26 in 10.0 mi ESE 6.9 mph - N/A   Mostly Cloudy
9:54 PM 64.0 °F 52.0 °F 65% 30.28 in 10.0 mi SE 4.6 mph - N/A   Mostly Cloudy
10:54 PM 62.1 °F 52.0 °F 70% 30.28 in 10.0 mi SE 6.9 mph - N/A   Mostly Cloudy
11:54 PM 60.1 °F 52.0 °F 75% 30.27 in 10.0 mi SE 6.9 mph - N/A   Mostly Cloudy